Flag Weather past 2 weeks in Portsmouth, England, United Kingdom

Now
39 °F

Clear.


Feels Like: 39 °F
Forecast: N/A
Wind: 2 mph from Northwest

Location: Southampton / Weather Centre

Current Time: Nov 23, 2014 at 10:47:32 PM

Latest Report: Nov 23, 2014 at 9:50 PM


Visibility: 10 mi

Pressure: 30.15 "Hg

Humidity: 93%

Dew point: 37 °F

Location of PortsmouthLocation

Historic Weather in Portsmouth — Graph

°F

Portsmouth temperature yesterday

Maximum temperature yesterday: 57 °F (at 10:50 AM)
Minimum temperature yesterday: 52 °F (at 8:20 PM)
Average temperature yesterday: 55 °F

Past Weeks' High & Low Weather Summary

 TemperatureHumidityPressure
High57 °F (Nov 14, 12:50 PM)100% (Nov 9, 6:50 AM)30.24 "Hg (Nov 9, 6:50 AM)
Low36 °F (Nov 10, 7:50 AM)67% (Nov 9, 12:20 PM)29.30 "Hg (Nov 11, 3:50 PM)
Average49 °F90%29.71 "Hg
* Reported Nov 9 6:50 AM — Nov 23 9:20 PM, Portsmouth, Weather by CustomWeather, © 2014

Note: Actual official high and low records may vary slightly from our data, if they occured in-between our weather recording intervals... More about our weather records

Advertising

Portsmouth weather history for previous 24 hours

 ConditionsComfort  
Time TempWeatherWind HumidityBarometerVisibility
9:20 PM
Nov 23
39 °FClear.No wind100%30.15 "Hg10 mi
8:20 PM43 °FClear.3 mph93%30.15 "Hg10 mi
7:50 PM43 °FClear.3 mph93%30.12 "Hg10 mi
7:20 PM45 °FClear.2 mph93%30.12 "Hg10 mi
6:50 PM45 °FClear.3 mph93%30.12 "Hg10 mi
6:20 PM45 °FClear.3 mph93%30.09 "Hg10 mi
5:50 PM45 °FClear.2 mph93%30.09 "Hg10 mi
5:20 PM45 °FClear.2 mph93%30.09 "Hg10 mi
4:50 PM45 °FPassing clouds.1 mph93%30.07 "HgN/A
4:20 PM45 °FPartly cloudy.3 mph93%30.07 "HgN/A
3:50 PM45 °FScattered clouds.5 mph93%30.07 "HgN/A
3:20 PM46 °FScattered clouds.6 mph87%30.04 "HgN/A
2:50 PM46 °FScattered clouds.7 mph87%30.04 "HgN/A
2:20 PM46 °FLight rain. Scattered clouds.7 mph87%30.04 "HgN/A
1:50 PM46 °FLight rain. More clouds than sun.8 mph87%30.04 "Hg6 mi
1:20 PM46 °FLight rain. More clouds than sun.8 mph87%30.04 "Hg6 mi
12:50 PM45 °FLight rain. Overcast.12 mph93%30.01 "Hg6 mi
12:20 PM45 °FLight rain. Overcast.10 mph93%30.04 "Hg6 mi
11:50 AM45 °FRain. Overcast.8 mph93%30.04 "Hg6 mi
11:20 AM46 °FLight rain. More clouds than sun.6 mph93%30.04 "HgN/A
10:50 AM46 °FLight rain. Overcast.10 mph87%30.04 "HgN/A
10:20 AM46 °FLight rain. Overcast.10 mph87%30.04 "HgN/A
9:50 AM46 °FLight rain. More clouds than sun.8 mph93%30.04 "HgN/A
9:20 AM46 °FLight rain. Overcast.6 mph93%30.01 "Hg6 mi
8:50 AM46 °FLight rain. More clouds than sun.6 mph93%30.01 "Hg6 mi
8:20 AM46 °FLight rain. Overcast.8 mph93%30.01 "Hg6 mi
7:50 AM46 °FLight rain. Overcast.7 mph93%30.01 "Hg6 mi
7:20 AM48 °FLight rain. Overcast.10 mph87%30.01 "Hg6 mi
6:50 AM48 °FLight rain. Passing clouds.10 mph87%30.01 "Hg6 mi
Weather by CustomWeather, © 2014

See weather overviewHow to use our weather pages